Regional Weather Roundup
Issued by NWS

Home | Current Version | Previous Version | Text Only | Print | Product List | Glossary On
Versions: 1 2 3 4 5 6 7 8 9 10 11 12 13 14 15 16 17 18 19 20 21 22 23 24 25 26 27 28 29 30 31 32 33 34 35 36 37 38 39 40 41 42 43 44 45 46 47 48 49 50
000
ASCA42 TJSJ 042310
RWRPR
PUERTO RICO/U.S. VIRGIN ISLANDS HOURLY WEATHER ROUNDUP
NATIONAL WEATHER SERVICE SAN JUAN PR
700 PM AST FRI SEP 04 2015

PRZ001-004-050000-
PUERTO RICO

CITY           SKY/WX    TMP DP  RH WIND       PRES   REMARKS
SAN JUAN LMM   PTCLDY    82  75  78 E8        29.96S
PONCE          PTCLDY    82  75  78 NE6       29.91S
AGUADILLA      PTCLDY    81  73  78 SE3       29.98R
CEIBA          MOCLDY    82  75  78 CALM      29.97F
$$

PRZ006-007-050000-
U.S. VIRGIN ISLANDS

CITY           SKY/WX    TMP DP  RH WIND       PRES   REMARKS
CHARLOTTE AMA  RAIN      81  75  83 NE9       29.96S
CHRISTIANSTED  PTCLDY    82  75  78 N3        29.97R
$$

HOURLY WEATHER ROUNDUP FOR THE NEWS MEDIA

CITY           SKY/WX    TMP DP  RH WIND       PRES   REMARKS
NEW YORK       PTCLDY    77  64  64 E16       30.12S
NEWARK         PTCLDY    78  67  68 SE8       30.11S
CHICAGO        MOSUNNY   78  67  68 NE10      30.01S
HARTFORD       MOCLDY    67  59  75 NE12      30.18S
BOSTON         PTCLDY    64  59  83 NE9       30.23R
DALLAS         PTSUNNY   94  66  39 E9        29.89R HX  97
PHILADELPHIA   CLOUDY    80  67  64 E15       30.10R
LOS ANGELES    FAIR      74  57  55 W12       29.84F
WASHINGTON DC  CLOUDY    75  72  90 CALM      30.05R


USA.gov is the U.S. government's official web portal to all federal, state and local government web resources and services.